| time (UTC) | temp F | wind direction | speed MPH | gust MPH | rain 1hr in | rain 24hr in | rain mn in | humidity % | barometer mb |
| 20260509053525 | 48 | 137 | 3.0 | 7.0 | 0.00 | 0.00 | 0.00 | 83 | 1006.5 |
| 20260509053003 | 48 | 150 | 3.0 | 7.0 | 0.00 | 0.00 | 0.00 | 83 | 1006.6 |
| 20260509052503 | 48 | 152 | 3.0 | 7.0 | 0.00 | 0.00 | 0.00 | 83 | 1006.7 |
| 20260509052004 | 48 | 151 | 4.0 | 5.0 | 0.00 | 0.00 | 0.00 | 83 | 1006.8 |
| 20260509051504 | 48 | 145 | 4.0 | 8.0 | 0.00 | 0.00 | 0.00 | 83 | 1006.9 |
| 20260509051004 | 48 | 138 | 4.0 | 8.0 | 0.00 | 0.00 | 0.00 | 83 | 1006.9 |
| 20260509050504 | 48 | 101 | 4.0 | 5.0 | 0.00 | 0.00 | 0.00 | 83 | 1007.1 |
| 20260509050025 | 48 | 126 | 4.0 | 8.0 | 0.00 | 0.00 | 0.00 | 83 | 1007.0 |
| 20260509045525 | 48 | 123 | 5.0 | 8.0 | 0.00 | 0.00 | 0.00 | 83 | 1007.0 |
| 20260509045024 | 48 | 63 | 5.0 | 11.0 | 0.00 | 0.00 | 0.00 | 83 | 1006.9 |
| 20260509044525 | 48 | 10 | 5.0 | 9.0 | 0.00 | 0.00 | 0.00 | 83 | 1007.1 |
| 20260509044004 | 47 | 360 | 5.0 | 8.0 | 0.00 | 0.00 | 0.00 | 83 | 1007.0 |
| 20260509043525 | 47 | 360 | 5.0 | 11.0 | 0.00 | 0.00 | 0.00 | 83 | 1007.1 |
| 20260509043004 | 47 | 360 | 4.0 | 7.0 | 0.00 | 0.00 | 0.00 | 84 | 1007.2 |
| 20260509042504 | 47 | 360 | 5.0 | 8.0 | 0.00 | 0.00 | 0.00 | 84 | 1007.2 |
| 20260509042025 | 46 | 360 | 5.0 | 8.0 | 0.00 | 0.00 | 0.00 | 84 | 1007.3 |
| 20260509041503 | 46 | 360 | 4.0 | 7.0 | 0.00 | 0.00 | 0.00 | 84 | 1007.3 |
| 20260509041003 | 46 | 360 | 3.0 | 8.0 | 0.00 | 0.00 | 0.00 | 84 | 1007.4 |
| 20260509040504 | 46 | 360 | 3.0 | 5.0 | 0.00 | 0.00 | 0.00 | 83 | 1007.6 |
| 20260509040005 | 46 | 360 | 3.0 | 5.0 | 0.00 | 0.00 | 0.00 | 83 | 1007.6 |
| 20260509035504 | 46 | 360 | 3.0 | 4.0 | 0.00 | 0.00 | 0.00 | 83 | 1007.6 |
| 20260509035004 | 46 | 360 | 3.0 | 4.0 | 0.00 | 0.00 | 0.00 | 83 | 1007.6 |
| 20260509034504 | 46 | 360 | 3.0 | 4.0 | 0.00 | 0.00 | 0.00 | 83 | 1007.7 |
| 20260509034004 | 46 | 360 | 3.0 | 4.0 | 0.00 | 0.00 | 0.00 | 82 | 1007.7 |
| 20260509033504 | 46 | 360 | 3.0 | 5.0 | 0.00 | 0.00 | 0.00 | 82 | 1007.7 |
| 20260509033004 | 46 | 360 | 3.0 | 5.0 | 0.00 | 0.00 | 0.00 | 82 | 1007.7 |
| 20260509032504 | 46 | 360 | 4.0 | 8.0 | 0.00 | 0.00 | 0.00 | 82 | 1007.8 |
| 20260509032026 | 47 | 360 | 3.0 | 8.0 | 0.00 | 0.00 | 0.00 | 81 | 1007.8 |
| 20260509031504 | 47 | 360 | 3.0 | 7.0 | 0.00 | 0.00 | 0.00 | 80 | 1007.9 |
| 20260509031004 | 47 | 360 | 3.0 | 5.0 | 0.00 | 0.00 | 0.00 | 80 | 1007.9 |
| 20260509030526 | 47 | 360 | 3.0 | 5.0 | 0.00 | 0.00 | 0.00 | 80 | 1007.9 |
| 20260509030004 | 48 | 123 | 3.0 | 5.0 | 0.00 | 0.00 | 0.00 | 79 | 1008.0 |
| 20260509025504 | 48 | 161 | 3.0 | 5.0 | 0.00 | 0.00 | 0.00 | 79 | 1008.1 |
| 20260509025026 | 48 | 163 | 4.0 | 8.0 | 0.00 | 0.00 | 0.00 | 79 | 1008.1 |
| 20260509024524 | 48 | 166 | 4.0 | 7.0 | 0.00 | 0.00 | 0.00 | 79 | 1008.2 |
| 20260509024003 | 48 | 166 | 4.0 | 8.0 | 0.00 | 0.00 | 0.00 | 79 | 1008.2 |
| 20260509023504 | 49 | 165 | 4.0 | 8.0 | 0.00 | 0.00 | 0.00 | 78 | 1008.3 |
| 20260509023004 | 49 | 166 | 5.0 | 8.0 | 0.00 | 0.00 | 0.00 | 78 | 1008.2 |
| 20260509022504 | 49 | 167 | 6.0 | 8.0 | 0.00 | 0.00 | 0.00 | 78 | 1008.3 |
| 20260509022025 | 49 | 172 | 6.0 | 12.0 | 0.00 | 0.00 | 0.00 | 78 | 1008.3 |
| 20260509021525 | 49 | 189 | 5.0 | 9.0 | 0.00 | 0.00 | 0.00 | 78 | 1008.3 |
| 20260509021004 | 49 | 202 | 4.0 | 9.0 | 0.00 | 0.00 | 0.00 | 78 | 1008.3 |
| 20260509020503 | 49 | 208 | 3.0 | 5.0 | 0.00 | 0.00 | 0.00 | 78 | 1008.2 |
| 20260509020004 | 49 | 208 | 2.0 | 5.0 | 0.00 | 0.00 | 0.00 | 78 | 1008.3 |
| 20260509015503 | 49 | 204 | 3.0 | 7.0 | 0.00 | 0.00 | 0.00 | 77 | 1008.3 |
| 20260509015004 | 49 | 204 | 4.0 | 9.0 | 0.00 | 0.00 | 0.00 | 77 | 1008.2 |
| 20260509014503 | 49 | 201 | 3.0 | 8.0 | 0.00 | 0.00 | 0.00 | 75 | 1008.2 |
| 20260509014003 | 49 | 194 | 3.0 | 7.0 | 0.00 | 0.00 | 0.00 | 74 | 1008.1 |
| 20260509013504 | 49 | 193 | 2.0 | 5.0 | 0.00 | 0.00 | 0.00 | 74 | 1008.1 |
| 20260509013003 | 50 | 192 | 2.0 | 4.0 | 0.00 | 0.00 | 0.00 | 74 | 1008.0 |
| 20260509012504 | 50 | 193 | 2.0 | 7.0 | 0.00 | 0.00 | 0.00 | 73 | 1007.8 |
| 20260509012025 | 50 | 194 | 2.0 | 5.0 | 0.00 | 0.00 | 0.00 | 72 | 1007.7 |
| 20260509011504 | 51 | 195 | 3.0 | 5.0 | 0.00 | 0.00 | 0.00 | 72 | 1007.6 |
| 20260509011003 | 51 | 195 | 2.0 | 5.0 | 0.00 | 0.00 | 0.00 | 72 | 1007.6 |
| 20260509010503 | 51 | 195 | 2.0 | 4.0 | 0.00 | 0.00 | 0.00 | 71 | 1007.7 |
| 20260509010025 | 51 | 198 | 3.0 | 4.0 | 0.00 | 0.00 | 0.00 | 71 | 1007.6 |
| 20260509005503 | 51 | 202 | 4.0 | 7.0 | 0.00 | 0.00 | 0.00 | 70 | 1007.6 |
| 20260509005004 | 51 | 197 | 4.0 | 11.0 | 0.00 | 0.00 | 0.00 | 70 | 1007.6 |
| 20260509004525 | 52 | 198 | 4.0 | 8.0 | 0.00 | 0.00 | 0.00 | 70 | 1007.6 |
| 20260509004024 | 52 | 171 | 4.0 | 8.0 | 0.00 | 0.00 | 0.00 | 70 | 1007.5 |
| 20260509003504 | 52 | 167 | 4.0 | 8.0 | 0.00 | 0.00 | 0.00 | 70 | 1007.5 |
| 20260509003003 | 52 | 176 | 6.0 | 8.0 | 0.00 | 0.00 | 0.00 | 70 | 1007.5 |
| 20260509002503 | 52 | 185 | 6.0 | 12.0 | 0.00 | 0.00 | 0.00 | 70 | 1007.5 |
| 20260509002003 | 52 | 194 | 5.0 | 9.0 | 0.00 | 0.00 | 0.00 | 69 | 1007.5 |
| 20260509001503 | 53 | 195 | 5.0 | 11.0 | 0.00 | 0.00 | 0.00 | 68 | 1007.6 |
| 20260509001004 | 53 | 197 | 4.0 | 11.0 | 0.00 | 0.00 | 0.00 | 68 | 1007.6 |
| 20260509000504 | 53 | 285 | 4.0 | 9.0 | 0.00 | 0.00 | 0.00 | 67 | 1007.5 |
| 20260509000025 | 53 | 359 | 5.0 | 8.0 | 0.00 | 0.00 | 0.00 | 67 | 1007.6 |
| 20260508235503 | 53 | 360 | 5.0 | 12.0 | 0.00 | 0.00 | 0.00 | 66 | 1007.6 |
| 20260508235003 | 54 | 360 | 6.0 | 11.0 | 0.00 | 0.00 | 0.00 | 66 | 1007.6 |
| 20260508234524 | 54 | 360 | 6.0 | 15.0 | 0.00 | 0.00 | 0.00 | 66 | 1007.7 |
| 20260508234003 | 54 | 360 | 6.0 | 15.0 | 0.00 | 0.00 | 0.00 | 64 | 1007.8 |
| 20260508233503 | 54 | 360 | 6.0 | 13.0 | 0.00 | 0.00 | 0.00 | 63 | 1007.7 |
| 20260508233003 | 54 | 360 | 6.0 | 11.0 | 0.00 | 0.00 | 0.00 | 64 | 1007.7 |
| 20260508232504 | 55 | 360 | 7.0 | 13.0 | 0.00 | 0.00 | 0.00 | 64 | 1007.7 |
| 20260508232003 | 55 | 360 | 8.0 | 13.0 | 0.00 | 0.00 | 0.00 | 64 | 1007.5 |
| 20260508231503 | 55 | 360 | 7.0 | 15.0 | 0.00 | 0.00 | 0.00 | 63 | 1007.5 |
| 20260508231024 | 55 | 360 | 6.0 | 15.0 | 0.00 | 0.00 | 0.00 | 64 | 1007.6 |
| 20260508230503 | 55 | 360 | 7.0 | 15.0 | 0.00 | 0.00 | 0.00 | 63 | 1007.6 |
| 20260508230024 | 56 | 360 | 6.0 | 15.0 | 0.00 | 0.00 | 0.00 | 64 | 1007.6 |
| 20260508225503 | 56 | 360 | 7.0 | 12.0 | 0.00 | 0.00 | 0.00 | 63 | 1007.5 |
| 20260508225024 | 56 | 360 | 7.0 | 13.0 | 0.00 | 0.00 | 0.00 | 63 | 1007.6 |
| 20260508224524 | 56 | 360 | 7.0 | 16.0 | 0.00 | 0.00 | 0.00 | 63 | 1007.5 |
| 20260508224004 | 57 | 360 | 7.0 | 16.0 | 0.00 | 0.00 | 0.00 | 62 | 1007.5 |
| 20260508223504 | 57 | 360 | 5.0 | 13.0 | 0.00 | 0.00 | 0.00 | 62 | 1007.7 |
| 20260508223003 | 57 | 360 | 5.0 | 11.0 | 0.00 | 0.00 | 0.00 | 62 | 1007.7 |
| 20260508222524 | 57 | 360 | 6.0 | 11.0 | 0.00 | 0.00 | 0.00 | 62 | 1007.7 |
| 20260508222003 | 57 | 360 | 8.0 | 16.0 | 0.00 | 0.00 | 0.00 | 62 | 1007.8 |
| 20260508221503 | 57 | 360 | 8.0 | 19.0 | 0.00 | 0.00 | 0.00 | 62 | 1007.8 |
| 20260508221003 | 57 | 360 | 8.0 | 15.0 | 0.00 | 0.00 | 0.00 | 61 | 1007.8 |
| 20260508220524 | 57 | 360 | 9.0 | 15.0 | 0.00 | 0.00 | 0.00 | 62 | 1007.7 |
| 20260508220003 | 58 | 360 | 8.0 | 17.0 | 0.00 | 0.00 | 0.00 | 61 | 1007.7 |
| 20260508215524 | 58 | 360 | 7.0 | 15.0 | 0.00 | 0.00 | 0.00 | 62 | 1007.8 |
| 20260508215004 | 57 | 360 | 8.0 | 15.0 | 0.00 | 0.00 | 0.00 | 60 | 1007.7 |
| 20260508214504 | 57 | 360 | 9.0 | 15.0 | 0.00 | 0.00 | 0.00 | 61 | 1007.7 |
| 20260508214003 | 58 | 356 | 10.0 | 17.0 | 0.00 | 0.00 | 0.00 | 59 | 1007.8 |
| 20260508213503 | 58 | 266 | 10.0 | 17.0 | 0.00 | 0.00 | 0.00 | 60 | 1007.8 |
| 20260508213003 | 58 | 215 | 9.0 | 20.0 | 0.00 | 0.00 | 0.00 | 58 | 1008.0 |
| 20260508212503 | 59 | 211 | 9.0 | 20.0 | 0.00 | 0.00 | 0.00 | 58 | 1008.0 |
| 20260508212004 | 59 | 208 | 9.0 | 19.0 | 0.00 | 0.00 | 0.00 | 36 | 1008.0 |
| 20260508211524 | 59 | 211 | 8.0 | 19.0 | 0.00 | 0.00 | 0.00 | 58 | 1007.8 |
| 20260508211003 | 59 | 209 | 6.0 | 16.0 | 0.00 | 0.00 | 0.00 | 58 | 1007.8 |
| 20260508210503 | 59 | 216 | 6.0 | 11.0 | 0.00 | 0.00 | 0.00 | 59 | 1008.0 |
| 20260508210003 | 60 | 224 | 6.0 | 19.0 | 0.00 | 0.00 | 0.00 | 59 | 1008.0 |
| 20260508205503 | 60 | 221 | 6.0 | 9.0 | 0.00 | 0.00 | 0.00 | 58 | 1007.8 |
| 20260508205003 | 60 | 215 | 7.0 | 19.0 | 0.00 | 0.00 | 0.00 | 57 | 1008.0 |
| 20260508204503 | 61 | 225 | 6.0 | 17.0 | 0.00 | 0.00 | 0.00 | 35 | 1008.0 |
| 20260508204003 | 61 | 255 | 4.0 | 9.0 | 0.00 | 0.00 | 0.00 | 35 | 1008.0 |
| 20260508203503 | 61 | 239 | 4.0 | 11.0 | 0.00 | 0.00 | 0.00 | 57 | 1008.0 |
| 20260508203004 | 60 | 237 | 5.0 | 11.0 | 0.00 | 0.00 | 0.00 | 58 | 1008.1 |
| 20260508202503 | 60 | 216 | 5.0 | 12.0 | 0.00 | 0.00 | 0.00 | 58 | 1008.1 |
| 20260508202024 | 60 | 202 | 6.0 | 13.0 | 0.00 | 0.00 | 0.00 | 61 | 1008.1 |
| 20260508201503 | 60 | 209 | 8.0 | 16.0 | 0.00 | 0.00 | 0.00 | 60 | 1008.1 |
| 20260508201003 | 59 | 214 | 7.0 | 12.0 | 0.00 | 0.00 | 0.00 | 59 | 1008.1 |
| 20260508200503 | 59 | 209 | 8.0 | 13.0 | 0.00 | 0.00 | 0.00 | 61 | 1008.2 |
| 20260508200024 | 60 | 231 | 8.0 | 19.0 | 0.00 | 0.00 | 0.00 | 60 | 1008.2 |
| 20260508195503 | 59 | 355 | 10.0 | 19.0 | 0.00 | 0.00 | 0.00 | 62 | 1008.2 |
| 20260508195003 | 59 | 342 | 10.0 | 20.0 | 0.00 | 0.00 | 0.00 | 61 | 1008.2 |
| 20260508194524 | 60 | 223 | 9.0 | 16.0 | 0.00 | 0.00 | 0.00 | 58 | 1008.3 |
| 20260508194003 | 62 | 208 | 7.0 | 20.0 | 0.00 | 0.00 | 0.00 | 55 | 1008.3 |
| 20260508193503 | 62 | 272 | 5.0 | 15.0 | 0.00 | 0.00 | 0.00 | 44 | 1008.3 |
| 20260508193003 | 63 | 296 | 4.0 | 11.0 | 0.00 | 0.00 | 0.00 | 42 | 1008.4 |
| 20260508192503 | 62 | 264 | 3.0 | 11.0 | 0.00 | 0.00 | 0.00 | 44 | 1008.5 |
| 20260508192003 | 62 | 276 | 4.0 | 9.0 | 0.00 | 0.00 | 0.00 | 42 | 1008.5 |
| 20260508191503 | 62 | 295 | 4.0 | 9.0 | 0.00 | 0.00 | 0.00 | 42 | 1008.6 |
| 20260508191003 | 62 | 355 | 4.0 | 8.0 | 0.00 | 0.00 | 0.00 | 44 | 1008.7 |
| 20260508190503 | 62 | 345 | 5.0 | 9.0 | 0.00 | 0.00 | 0.00 | 42 | 1008.7 |
| 20260508190003 | 62 | 311 | 6.0 | 13.0 | 0.00 | 0.00 | 0.00 | 41 | 1009.0 |
| 20260508185524 | 62 | 321 | 4.0 | 12.0 | 0.00 | 0.00 | 0.00 | 41 | 1009.0 |
| 20260508185003 | 62 | 360 | 4.0 | 8.0 | 0.00 | 0.00 | 0.00 | 41 | 1009.0 |
| 20260508184524 | 62 | 5 | 4.0 | 11.0 | 0.00 | 0.00 | 0.00 | 39 | 1009.0 |
| 20260508184004 | 62 | 327 | 5.0 | 11.0 | 0.00 | 0.00 | 0.00 | 41 | 1009.1 |
| 20260508183524 | 62 | 316 | 5.0 | 16.0 | 0.00 | 0.00 | 0.00 | 41 | 1009.1 |
| 20260508183025 | 61 | 303 | 6.0 | 19.0 | 0.00 | 0.00 | 0.00 | 44 | 1009.1 |
| 20260508182503 | 61 | 303 | 6.0 | 16.0 | 0.00 | 0.00 | 0.00 | 41 | 1009.1 |
| 20260508182003 | 61 | 331 | 5.0 | 13.0 | 0.00 | 0.00 | 0.00 | 41 | 1009.2 |
| 20260508181503 | 62 | 319 | 5.0 | 11.0 | 0.00 | 0.00 | 0.00 | 19 | 1009.2 |
| 20260508181003 | 62 | 296 | 5.0 | 17.0 | 0.00 | 0.00 | 0.00 | 40 | 1009.3 |
| 20260508180503 | 62 | 285 | 4.0 | 13.0 | 0.00 | 0.00 | 0.00 | 41 | 1009.3 |
| 20260508180003 | 62 | 282 | 4.0 | 11.0 | 0.00 | 0.00 | 0.00 | 19 | 1009.4 |
| 20260508175524 | 62 | 304 | 4.0 | 11.0 | 0.00 | 0.00 | 0.00 | 46 | 1009.4 |
| 20260508175003 | 62 | 302 | 5.0 | 13.0 | 0.00 | 0.00 | 0.00 | 40 | 1009.6 |
| 20260508174503 | 62 | 296 | 3.0 | 12.0 | 0.00 | 0.00 | 0.00 | 41 | 1009.7 |
| 20260508174003 | 61 | 314 | 4.0 | 8.0 | 0.00 | 0.00 | 0.00 | 44 | 1009.5 |
| 20260508173503 | 61 | 319 | 5.0 | 12.0 | 0.00 | 0.00 | 0.00 | 44 | 1009.7 |
| 20260508173004 | 61 | 330 | 4.0 | 13.0 | 0.00 | 0.00 | 0.00 | 41 | 1009.7 |
| 20260508172503 | 61 | 330 | 4.0 | 11.0 | 0.00 | 0.00 | 0.00 | 46 | 1009.8 |
| 20260508172003 | 61 | 342 | 5.0 | 9.0 | 0.00 | 0.00 | 0.00 | 41 | 1009.8 |
| 20260508171503 | 61 | 347 | 4.0 | 13.0 | 0.00 | 0.00 | 0.00 | 42 | 1009.9 |
| 20260508171003 | 61 | 333 | 3.0 | 11.0 | 0.00 | 0.00 | 0.00 | 22 | 1009.8 |
| 20260508170503 | 61 | 329 | 3.0 | 11.0 | 0.00 | 0.00 | 0.00 | 44 | 1009.9 |
| 20260508170003 | 60 | 345 | 4.0 | 7.0 | 0.00 | 0.00 | 0.00 | 41 | 1010.0 |
| 20260508165525 | 60 | 347 | 4.0 | 13.0 | 0.00 | 0.00 | 0.00 | 41 | 1010.0 |
| 20260508165004 | 61 | 318 | 3.0 | 11.0 | 0.00 | 0.00 | 0.00 | 42 | 1010.0 |
| 20260508164504 | 61 | 319 | 2.0 | 5.0 | 0.00 | 0.00 | 0.00 | 45 | 1010.1 |
| 20260508164004 | 60 | 347 | 3.0 | 5.0 | 0.00 | 0.00 | 0.00 | 46 | 1010.2 |
| 20260508163504 | 60 | 345 | 4.0 | 11.0 | 0.00 | 0.00 | 0.00 | 44 | 1010.2 |
| 20260508163004 | 60 | 322 | 3.0 | 9.0 | 0.00 | 0.00 | 0.00 | 42 | 1010.3 |
| 20260508162505 | 60 | 285 | 3.0 | 8.0 | 0.00 | 0.00 | 0.00 | 48 | 1010.3 |
| 20260508162025 | 59 | 290 | 3.0 | 11.0 | 0.00 | 0.00 | 0.00 | 27 | 1010.4 |
| 20260508161504 | 59 | 308 | 3.0 | 13.0 | 0.00 | 0.00 | 0.00 | 48 | 1010.4 |
| 20260508161004 | 58 | 355 | 3.0 | 20.0 | 0.00 | 0.00 | 0.00 | 48 | 1010.5 |
| 20260508160504 | 58 | 333 | 4.0 | 9.0 | 0.00 | 0.00 | 0.00 | 45 | 1010.5 |
| 20260508160004 | 59 | 298 | 4.0 | 15.0 | 0.00 | 0.00 | 0.00 | 46 | 1010.7 |
| 20260508155504 | 59 | 282 | 4.0 | 9.0 | 0.00 | 0.00 | 0.00 | 48 | 1010.7 |
| 20260508155004 | 59 | 289 | 4.0 | 11.0 | 0.00 | 0.00 | 0.00 | 51 | 1010.8 |
| 20260508154504 | 59 | 293 | 4.0 | 11.0 | 0.00 | 0.00 | 0.00 | 49 | 1010.7 |
| 20260508154004 | 58 | 322 | 2.0 | 11.0 | 0.00 | 0.00 | 0.00 | 51 | 1010.7 |
| 20260508153504 | 58 | 10 | 2.0 | 5.0 | 0.00 | 0.00 | 0.00 | 28 | 1010.7 |
| 20260508153004 | 57 | 25 | 3.0 | 7.0 | 0.00 | 0.00 | 0.00 | 52 | 1010.8 |
| 20260508152504 | 57 | 16 | 4.0 | 8.0 | 0.00 | 0.00 | 0.00 | 49 | 1010.8 |
| 20260508152004 | 57 | 360 | 3.0 | 11.0 | 0.00 | 0.00 | 0.00 | 51 | 1010.9 |
| 20260508151525 | 56 | 332 | 4.0 | 5.0 | 0.00 | 0.00 | 0.00 | 49 | 1010.8 |
| 20260508151004 | 56 | 328 | 4.0 | 12.0 | 0.00 | 0.00 | 0.00 | 49 | 1010.9 |
| 20260508150504 | 57 | 333 | 3.0 | 11.0 | 0.00 | 0.00 | 0.00 | 52 | 1010.8 |
| 20260508150005 | 57 | 313 | 2.0 | 7.0 | 0.00 | 0.00 | 0.00 | 29 | 1010.8 |
| 20260508145525 | 57 | 303 | 2.0 | 7.0 | 0.00 | 0.00 | 0.00 | 55 | 1010.8 |
| 20260508145004 | 56 | 336 | 2.0 | 7.0 | 0.00 | 0.00 | 0.00 | 53 | 1011.0 |
| 20260508144504 | 56 | 360 | 3.0 | 7.0 | 0.00 | 0.00 | 0.00 | 53 | 1011.0 |
| 20260508144004 | 56 | 330 | 3.0 | 12.0 | 0.00 | 0.00 | 0.00 | 53 | 1011.1 |
| 20260508143504 | 55 | 324 | 3.0 | 11.0 | 0.00 | 0.00 | 0.00 | 55 | 1011.1 |
| 20260508143004 | 55 | 333 | 3.0 | 7.0 | 0.00 | 0.00 | 0.00 | 56 | 1011.1 |
| 20260508142504 | 55 | 323 | 3.0 | 8.0 | 0.00 | 0.00 | 0.00 | 33 | 1011.2 |
| 20260508142004 | 55 | 331 | 2.0 | 8.0 | 0.00 | 0.00 | 0.00 | 59 | 1011.2 |
| 20260508141525 | 54 | 329 | 2.0 | 4.0 | 0.00 | 0.00 | 0.00 | 59 | 1011.2 |
| 20260508141004 | 54 | 341 | 3.0 | 12.0 | 0.00 | 0.00 | 0.00 | 57 | 1011.2 |
| 20260508140504 | 54 | 12 | 2.0 | 7.0 | 0.00 | 0.00 | 0.00 | 59 | 1011.1 |
| 20260508140004 | 54 | 348 | 3.0 | 7.0 | 0.00 | 0.00 | 0.00 | 58 | 1011.2 |
| 20260508135504 | 54 | 313 | 3.0 | 12.0 | 0.00 | 0.00 | 0.00 | 38 | 1011.1 |
| 20260508135004 | 54 | 309 | 2.0 | 11.0 | 0.00 | 0.00 | 0.00 | 62 | 1011.0 |
| 20260508134504 | 53 | 312 | 2.0 | 9.0 | 0.00 | 0.00 | 0.00 | 63 | 1011.1 |
| 20260508134004 | 53 | 299 | 2.0 | 7.0 | 0.00 | 0.00 | 0.00 | 63 | 1011.1 |
| 20260508133504 | 53 | 299 | 3.0 | 9.0 | 0.00 | 0.00 | 0.00 | 63 | 1011.1 |
| 20260508133004 | 53 | 323 | 3.0 | 12.0 | 0.00 | 0.00 | 0.00 | 63 | 1011.1 |
| 20260508132525 | 53 | 355 | 2.0 | 7.0 | 0.00 | 0.00 | 0.00 | 64 | 1011.1 |
| 20260508132004 | 52 | 356 | 2.0 | 4.0 | 0.00 | 0.00 | 0.00 | 66 | 1011.0 |
| 20260508131504 | 52 | 351 | 2.0 | 5.0 | 0.00 | 0.00 | 0.00 | 66 | 1011.0 |
| 20260508131025 | 51 | 353 | 2.0 | 4.0 | 0.00 | 0.00 | 0.00 | 68 | 1011.0 |
| 20260508130504 | 51 | 8 | 2.0 | 7.0 | 0.00 | 0.00 | 0.00 | 69 | 1010.9 |
| 20260508130005 | 50 | 21 | 2.0 | 7.0 | 0.00 | 0.00 | 0.00 | 70 | 1010.8 |
| 20260508125504 | 50 | 24 | 2.0 | 5.0 | 0.00 | 0.00 | 0.00 | 71 | 1010.9 |
| 20260508125004 | 49 | 30 | 3.0 | 5.0 | 0.00 | 0.00 | 0.00 | 72 | 1010.8 |
| 20260508124504 | 49 | 32 | 2.0 | 7.0 | 0.00 | 0.00 | 0.00 | 74 | 1010.8 |
| 20260508124004 | 49 | 32 | 2.0 | 4.0 | 0.00 | 0.00 | 0.00 | 75 | 1010.7 |
| 20260508123504 | 48 | 32 | 2.0 | 5.0 | 0.00 | 0.00 | 0.00 | 75 | 1010.7 |
| 20260508123004 | 48 | 33 | 1.0 | 4.0 | 0.00 | 0.00 | 0.00 | 77 | 1010.7 |
| 20260508122504 | 47 | 33 | 1.0 | 4.0 | 0.00 | 0.00 | 0.00 | 78 | 1010.7 |
| 20260508122025 | 46 | 33 | 1.0 | 5.0 | 0.00 | 0.00 | 0.00 | 78 | 1010.8 |
| 20260508121525 | 46 | 32 | 1.0 | 5.0 | 0.00 | 0.00 | 0.00 | 79 | 1010.8 |
| 20260508121004 | 45 | 31 | 0.0 | 3.0 | 0.00 | 0.00 | 0.00 | 81 | 1010.8 |
| 20260508120504 | 44 | 32 | 0.0 | 1.0 | 0.00 | 0.00 | 0.00 | 81 | 1010.7 |
| 20260508120004 | 44 | 0 | 0.0 | 0.0 | 0.00 | 0.00 | 0.00 | 82 | 1010.7 |
| 20260508115504 | 43 | 0 | 0.0 | 0.0 | 0.00 | 0.00 | 0.00 | 82 | 1010.6 |
| 20260508115004 | 42 | 0 | 0.0 | 0.0 | 0.00 | 0.00 | 0.00 | 82 | 1010.5 |
| 20260508114504 | 42 | 0 | 0.0 | 0.0 | 0.00 | 0.00 | 0.00 | 82 | 1010.6 |
| 20260508114005 | 41 | 34 | 0.0 | 0.0 | 0.00 | 0.00 | 0.00 | 83 | 1010.6 |
| 20260508113504 | 41 | 34 | 0.0 | 1.0 | 0.00 | 0.00 | 0.00 | 83 | 1010.4 |
| 20260508113005 | 40 | 0 | 0.0 | 0.0 | 0.00 | 0.00 | 0.00 | 83 | 1010.4 |
| 20260508112504 | 39 | 32 | 0.0 | 0.0 | 0.00 | 0.00 | 0.00 | 84 | 1010.4 |
| 20260508112004 | 39 | 32 | 0.0 | 1.0 | 0.00 | 0.00 | 0.00 | 84 | 1010.4 |
| 20260508111504 | 38 | 0 | 0.0 | 0.0 | 0.00 | 0.00 | 0.00 | 85 | 1010.5 |
| 20260508111025 | 38 | 0 | 0.0 | 0.0 | 0.00 | 0.00 | 0.00 | 85 | 1010.4 |
| 20260508110504 | 38 | 0 | 0.0 | 0.0 | 0.00 | 0.00 | 0.00 | 85 | 1010.3 |
| 20260508110004 | 37 | 0 | 0.0 | 0.0 | 0.00 | 0.00 | 0.00 | 85 | 1010.3 |
| 20260508105504 | 37 | 0 | 0.0 | 0.0 | 0.00 | 0.00 | 0.00 | 85 | 1010.5 |
| 20260508105004 | 37 | 0 | 0.0 | 0.0 | 0.00 | 0.00 | 0.00 | 85 | 1010.4 |
| 20260508104504 | 37 | 0 | 0.0 | 0.0 | 0.00 | 0.00 | 0.00 | 85 | 1010.4 |
| 20260508104004 | 37 | 0 | 0.0 | 0.0 | 0.00 | 0.00 | 0.00 | 84 | 1010.4 |
| 20260508103525 | 38 | 0 | 0.0 | 0.0 | 0.00 | 0.00 | 0.00 | 84 | 1010.4 |
| 20260508103025 | 38 | 0 | 0.0 | 0.0 | 0.00 | 0.00 | 0.00 | 84 | 1010.4 |
| 20260508102504 | 38 | 0 | 0.0 | 0.0 | 0.00 | 0.00 | 0.00 | 85 | 1010.4 |
| 20260508102005 | 38 | 0 | 0.0 | 0.0 | 0.00 | 0.00 | 0.00 | 85 | 1010.4 |
| 20260508101525 | 38 | 0 | 0.0 | 0.0 | 0.00 | 0.00 | 0.00 | 84 | 1010.4 |
| 20260508101025 | 39 | 0 | 0.0 | 0.0 | 0.00 | 0.00 | 0.00 | 84 | 1010.4 |
| 20260508100525 | 39 | 0 | 0.0 | 0.0 | 0.00 | 0.00 | 0.00 | 84 | 1010.4 |
| 20260508100004 | 39 | 0 | 0.0 | 0.0 | 0.00 | 0.00 | 0.00 | 84 | 1010.4 |
| 20260508095525 | 39 | 0 | 0.0 | 0.0 | 0.00 | 0.00 | 0.00 | 85 | 1010.4 |
| 20260508095004 | 39 | 0 | 0.0 | 0.0 | 0.00 | 0.00 | 0.00 | 85 | 1010.4 |
| 20260508094504 | 39 | 31 | 0.0 | 0.0 | 0.00 | 0.00 | 0.00 | 85 | 1010.3 |
| 20260508094004 | 39 | 31 | 0.0 | 3.0 | 0.00 | 0.00 | 0.00 | 85 | 1010.3 |
| 20260508093504 | 39 | 31 | 0.0 | 3.0 | 0.00 | 0.00 | 0.00 | 85 | 1010.4 |
| 20260508093004 | 39 | 0 | 0.0 | 0.0 | 0.00 | 0.00 | 0.00 | 85 | 1010.4 |
| 20260508092504 | 40 | 0 | 0.0 | 0.0 | 0.00 | 0.00 | 0.00 | 85 | 1010.5 |
| 20260508092004 | 40 | 0 | 0.0 | 0.0 | 0.00 | 0.00 | 0.00 | 84 | 1010.4 |
| 20260508091504 | 40 | 0 | 0.0 | 0.0 | 0.00 | 0.00 | 0.00 | 84 | 1010.3 |
| 20260508091025 | 40 | 0 | 0.0 | 0.0 | 0.00 | 0.00 | 0.00 | 84 | 1010.3 |
| 20260508090525 | 40 | 0 | 0.0 | 0.0 | 0.00 | 0.00 | 0.00 | 84 | 1010.3 |
| 20260508090025 | 40 | 0 | 0.0 | 0.0 | 0.00 | 0.00 | 0.00 | 85 | 1010.4 |
| 20260508085504 | 40 | 0 | 0.0 | 0.0 | 0.00 | 0.00 | 0.00 | 84 | 1010.4 |
| 20260508085004 | 40 | 0 | 0.0 | 0.0 | 0.00 | 0.00 | 0.00 | 84 | 1010.4 |
| 20260508084504 | 40 | 0 | 0.0 | 0.0 | 0.00 | 0.00 | 0.00 | 84 | 1010.4 |
| 20260508084004 | 40 | 0 | 0.0 | 0.0 | 0.00 | 0.00 | 0.00 | 84 | 1010.3 |
| 20260508083504 | 40 | 0 | 0.0 | 0.0 | 0.00 | 0.00 | 0.00 | 84 | 1010.4 |
| 20260508083004 | 40 | 0 | 0.0 | 0.0 | 0.00 | 0.00 | 0.00 | 84 | 1010.4 |
| 20260508082504 | 40 | 0 | 0.0 | 0.0 | 0.00 | 0.00 | 0.00 | 84 | 1010.3 |
| 20260508082004 | 40 | 0 | 0.0 | 0.0 | 0.00 | 0.00 | 0.00 | 84 | 1010.4 |
| 20260508081504 | 40 | 0 | 0.0 | 0.0 | 0.00 | 0.00 | 0.00 | 84 | 1010.3 |
| 20260508081025 | 40 | 0 | 0.0 | 0.0 | 0.00 | 0.00 | 0.00 | 84 | 1010.3 |
| 20260508080504 | 40 | 0 | 0.0 | 0.0 | 0.00 | 0.00 | 0.00 | 84 | 1010.3 |
| 20260508080004 | 40 | 0 | 0.0 | 0.0 | 0.00 | 0.00 | 0.00 | 83 | 1010.4 |
| 20260508075504 | 40 | 0 | 0.0 | 0.0 | 0.00 | 0.00 | 0.00 | 83 | 1010.4 |
| 20260508075004 | 40 | 0 | 0.0 | 0.0 | 0.00 | 0.00 | 0.00 | 83 | 1010.4 |
| 20260508074504 | 40 | 0 | 0.0 | 0.0 | 0.00 | 0.00 | 0.00 | 83 | 1010.4 |
| 20260508074025 | 40 | 0 | 0.0 | 0.0 | 0.00 | 0.00 | 0.00 | 83 | 1010.4 |
| 20260508073504 | 40 | 0 | 0.0 | 0.0 | 0.00 | 0.00 | 0.00 | 83 | 1010.4 |
| 20260508073005 | 40 | 0 | 0.0 | 0.0 | 0.00 | 0.00 | 0.00 | 83 | 1010.5 |
| 20260508072504 | 40 | 0 | 0.0 | 0.0 | 0.00 | 0.00 | 0.00 | 83 | 1010.6 |
| 20260508072004 | 40 | 0 | 0.0 | 0.0 | 0.00 | 0.00 | 0.00 | 83 | 1010.5 |
| 20260508071503 | 40 | 0 | 0.0 | 0.0 | 0.00 | 0.00 | 0.00 | 83 | 1010.4 |
| 20260508071004 | 40 | 0 | 0.0 | 0.0 | 0.00 | 0.00 | 0.00 | 83 | 1010.5 |
| 20260508070504 | 40 | 0 | 0.0 | 0.0 | 0.00 | 0.00 | 0.00 | 83 | 1010.6 |
| 20260508070026 | 40 | 0 | 0.0 | 0.0 | 0.00 | 0.00 | 0.00 | 83 | 1010.6 |
| 20260508065503 | 40 | 0 | 0.0 | 0.0 | 0.00 | 0.00 | 0.00 | 83 | 1010.7 |
| 20260508065004 | 40 | 31 | 0.0 | 0.0 | 0.00 | 0.00 | 0.00 | 83 | 1010.8 |
| 20260508064504 | 40 | 31 | 0.0 | 3.0 | 0.00 | 0.00 | 0.00 | 83 | 1010.9 |
| 20260508064004 | 40 | 31 | 0.0 | 1.0 | 0.00 | 0.00 | 0.00 | 83 | 1010.9 |
| 20260508063504 | 40 | 31 | 0.0 | 0.0 | 0.00 | 0.00 | 0.00 | 83 | 1010.7 |
| 20260508063004 | 40 | 31 | 0.0 | 1.0 | 0.00 | 0.00 | 0.00 | 83 | 1010.7 |
| 20260508062504 | 40 | 31 | 0.0 | 1.0 | 0.00 | 0.00 | 0.00 | 83 | 1010.7 |
| 20260508062004 | 40 | 0 | 0.0 | 0.0 | 0.00 | 0.00 | 0.00 | 83 | 1010.7 |
| 20260508061503 | 40 | 0 | 0.0 | 0.0 | 0.00 | 0.00 | 0.00 | 83 | 1010.9 |
| 20260508061004 | 41 | 0 | 0.0 | 0.0 | 0.00 | 0.00 | 0.00 | 83 | 1010.9 |
| 20260508060504 | 41 | 0 | 0.0 | 0.0 | 0.00 | 0.00 | 0.00 | 83 | 1010.8 |
| 20260508060004 | 41 | 0 | 0.0 | 0.0 | 0.00 | 0.00 | 0.00 | 83 | 1010.8 |
| 20260508055525 | 41 | 0 | 0.0 | 0.0 | 0.00 | 0.00 | 0.00 | 83 | 1010.9 |
| 20260508055004 | 41 | 0 | 0.0 | 0.0 | 0.00 | 0.00 | 0.00 | 83 | 1010.9 |
| 20260508054504 | 41 | 0 | 0.0 | 0.0 | 0.00 | 0.00 | 0.00 | 83 | 1011.0 |
| 20260508054003 | 41 | 0 | 0.0 | 0.0 | 0.00 | 0.00 | 0.00 | 83 | 1011.0 |